www.pogodaiklimat.ru

Погода и климат >> Архив погоды >> Беларусь >> Ивацевичи


ПОГОДА в Ивацевичах

  • Прогноз погоды в Ивацевичах
  • Монитор погоды в Ивацевичах
  • Климат города

АРХИВ ПОГОДЫ в Ивацевичах

Время (UTC), дата Ветер
(напр.,м/с)
 
Видим.   Явления Облачность Т
(С)
Тd
(С)
f
(%)
Тe
(С)
Тes
(С)
Комфортность P
(гПа)
Po
(гПа)
Тmin
(С)
Tmax
(С)
R
(мм)
R24
(мм)
S
(см)
03 14.06 штиль 0 н/о н/о +15.5 +12.4 82 +15 +16 1009.0 990.6 +15.1
06 14.06 штиль 0 20 км 10/3 600 м
[Sc Ac trans Ci fib]
+20.3 +13.3 64 +22 +25 комфорт 1009.4 991.5 +15.1
09 14.06 СВ 2 20 км 9/3 600 м
[Cu hum Ac lent]
+21.3 +12.5 57 +24 +27 комфорт 1010.3 992.4
12 14.06 С 1 20 км 10/10 900 м
[Sc]
+21.1 +12.0 56 +23 +23 комфорт 1010.5 992.6
15 14.06 В 2 20 км 8/8 930 м
[Sc Ac lent]
+22.2 +13.3 57 +25 +26 комфорт 1009.8 992.0
18 14.06 СВ 1 20 км 4/4 600 м
[Sc]
+20.6 +13.9 65 +24 +24 комфорт 1010.3 992.4 +23.3
21 14.06 СВ 1 н/о н/о +15.4 +13.6 89 +16 +16 1012.0 993.5
00 15.06 штиль 0 н/о н/о +14.4 +13.6 95 +14 +14 1012.0 993.5
03 15.06 СВ 1 н/о н/о +13.4 +12.5 94 +13 +14 1012.0 993.4 +13.2
06 15.06 СВ 2 20 км 9/9 800 м
[Sc]
+16.0 +13.7 86 +16 +17 1012.5 994.2 +13.2
09 15.06 СВ 3 20 км 9/9 840 м
[Sc]
+19.7 +13.6 68 +22 +23 комфорт 1013.2 995.1
12 15.06 С 2 20 км 8/6 900 м
[Cu med, cong Ac trans]
+22.0 +11.9 53 +24 +29 комфорт 1012.6 994.7
15 15.06 СВ 4
{10}
20 км 8/3 600 м
[Cu hum Ac trans]
+22.1 +13.6 59 +25 +27 комфорт 1012.9 995.0
18 15.06 СВ 2 20 км 9/8 900 м
[Sc Ac trans]
+18.8 +12.9 69 +20 +20 1014.1 996.0 +24.4
21 15.06 штиль 0 н/о н/о +15.4 +13.1 86 +15 +15 1015.0 996.5
00 16.06 штиль 0 н/о н/о +14.7 +12.2 85 +14 +14 1016.0 997.4
03 16.06 СЗ 1 н/о н/о +13.8 +12.0 89 +14 +14 1016.0 997.4 +13.1
06 16.06 СВ 4 20 км 6/5 1000 м
[Cu hum Ci fib]
+18.6 +11.8 65 +19 +21 1016.0 997.8 +13.1
09 16.06 С 3 20 км 8/8 870 м
[Cu med, cong]
+21.8 +10.8 50 +24 +26 комфорт 1015.6 997.6
12 16.06 С 2 20 км 8/8 870 м
[Cu med, cong]
+23.7 +9.9 42 +25 +28 комфорт 1015.1 997.3
15 16.06 СВ 3 20 км 5/5 1000 м
[Cu hum]
+24.6 +8.5 36 +25 +27 комфорт 1014.3 996.6
18 16.06 ЮВ 2 20 км 1/1 1000 м
[Sc]
+21.4 +13.0 59 +24 +24 комфорт 1015.1 997.1 +26.1
21 16.06 СВ 1 н/о н/о +14.9 +11.9 82 +15 +15 1017.0 998.4
00 17.06 С 1 н/о н/о +12.5 +11.2 92 +12 +12 1017.0 998.2
03 17.06 штиль 0 н/о н/о +11.0 +10.2 95 +10 +11 1018.0 999.1 +10.6
06 17.06 СВ 2 20 км 4/0
[Ci fib]
+17.1 +13.1 77 +17 +24 1017.0 998.7 +10.6
09 17.06 СВ 3 20 км 8/0
[Ci fib]
+22.6 +11.6 50 +25 +36 комфорт 1016.5 998.6
12 17.06 СВ 2 20 км 8/8 1000 м
[Cu med, cong Ci fib]
+25.8 +11.0 39 +27 +30 жарко 1015.4 997.7
15 17.06 В 2 20 км 8/6 1000 м
[Sc Ci fib]
+25.9 +10.7 38 +27 +29 жарко 1014.2 996.6
18 17.06 В 1 20 км 5/0
[Ci sp]
+22.9 +11.9 50 +25 +26 комфорт 1014.9 997.0 +27.0
21 17.06 штиль 0 н/о н/о +18.6 +12.1 66 +19 +19 1016.0 997.7
00 18.06 штиль 0 н/о н/о +16.9 +13.0 78 +17 +17 1016.0 997.6
03 18.06 штиль 0 н/о н/о +16.9 +13.8 82 +17 +17 1016.0 997.6 +16.3
06 18.06 В 1 20 км 10/3 600 м
[Sc Ac trans Ci fib]
+20.6 +13.1 62 +24 +27 комфорт 1016.5 998.4 +16.3
09 18.06 В 2 20 км 10/1 600 м
[Cu med, cong Ac trans Ci fib]
+25.5 +11.2 41 +27 +34 жарко 1016.4 998.7
12 18.06 В 1 20 км 8/4 600 м
[Cu med, cong Ci fib]
+27.0 +10.8 36 +28 +37 жарко 1015.7 998.1
15 18.06 В 3 20 км 8/6 900 м
[Cu hum Ac trans]
+27.4 +10.8 35 +28 +29 жарко 1014.7 997.2
18 18.06 штиль 0 20 км 9/8 840 м
[Sc diur, vesp Ac trans]
+25.2 +14.5 51 +28 +28 жарко 1015.5 997.8 +29.4
21 18.06 ЮЗ 2 н/о н/о +19.4 +17.5 89 +22 +22 комфорт 1017.0 998.7
00 19.06 СЗ 2 н/о н/о +19.7 +14.5 72 +22 +22 комфорт 1016.0 997.7
03 19.06 СЗ 1 н/о н/о +18.8 +13.4 71 +21 +21 комфорт 1017.0 998.7 +18.5
06 19.06 СЗ 1 20 км 9/8 750 м
[Sc Ac trans]
+19.5 +14.3 72 +22 +23 комфорт 1017.5 999.3 +18.4 0.6
09 19.06 З 1 20 км 8/3 600 м
[Cu med, cong Ci fib]
+25.9 +13.7 47 +28 +39 жарко 1016.7 999.0
12 19.06 З 5 20 км 9/9 700 м
[Cb calv]
+28.0 +13.7 41 +30 +31 жарко 1015.8 998.3
15 19.06 З 4
{11}
20 км 8/8 870 м
[Cu med, cong]
+28.3 +10.4 33 +29 +30 жарко 1015.2 997.7
18 19.06 С 2
{11}
20 км 10/3 600 м
[Sc Ci sp]
+24.2 +9.8 40 +25 +25 комфорт 1016.3 998.5 +29.6
21 19.06 З 1 н/о н/о +19.8 +10.2 54 +22 +22 комфорт 1018.0 999.7
00 20.06 СЗ 1 н/о н/о +18.3 +11.4 64 +20 +20 1019.0 1000.6
03 20.06 штиль 0 н/о н/о +16.9 +11.8 72 +17 +17 1020.0 1001.5 +16.3
06 20.06 СЗ 4 10 км 3 балла +21.0 +11.0 53 +23 +26 комфорт 1020.0 1001.7 +16.3
09 20.06 ЮЗ 5
{11}
10 км 3 балла +24.2 +8.6 37 +25 +31 комфорт 1020.0 1001.9
12 20.06 СЗ 4
{13}
10 км ясно +27.0 +7.9 30 +27 +37 жарко 1018.0 1000.1
15 20.06 СЗ 4
{10}
10 км ясно +27.7 +9.0 31 +28 +32 жарко 1017.0 999.2
18 20.06 СЗ 2 10 км ясно +25.3 +9.1 36 +26 +26 жарко 1017.0 999.0 +28.3
21 20.06 штиль 0 н/о н/о +17.8 +10.4 62 +18 +18 1018.0 999.6
00 21.06 штиль 0 н/о н/о +13.9 +10.3 79 +14 +14 1018.0 999.3

 

Местоположение метеостанции Ивацевичи (Брестская область, Беларусь): широта 52.70 долгота 25.36 высота над уровнем моря 156 м.

В архиве по умолчанию представлена погода в Ивацевичах за последнюю неделю. Архивные данные за месяц целиком и за предыдущие месяцы, начиная с января 2011 года, Вы можете получить, выбрав интересующий диапазон дат из раскрывающегося списка и нажав кнопку "Ввод!".


*Определитесь, кто Вы:
робот инопланетянин человек

Внимание! Время в таблицах - всемирное. Для получения местного времени необходимо прибавить поправку, которая в Ивацевичах равна 3 ч.

Смотрите также архив погоды в соседних городах и на ближайших метеорологических станциях:

Погода в Дрогичине (Брестская область, Беларусь) (58 км)
Погода в Пружанах (Брестская область, Беларусь) (61 км)
Погода в Барановичах (Брестская область, Беларусь) (63 км)
Погода в Ганцевичах (Брестская область, Беларусь) (73 км)
Погода в Пинске (Брестская область, Беларусь) (80 км)
Погода в Волковыске (Гродненская область, Беларусь) (80 км)
Погода в Полесской (Брестская область, Беларусь) (101 км)
Погода в Новогрудке (Гродненская область, Беларусь) (105 км)
Погода в Любешове (Волынская область, Украина) (115 км)
Погода в Столбцах (Минская область, Беларусь) (126 км)

Пояснения к столбцам:

Ветер - указаны скорость ветра в м/с - средняя за 10 мин, порывы в срок и между сроками (в фигурных скобках) и направление, откуда дует ветер: С - северный, СВ - северо-восточный, В - восточный, ЮВ - юго-восточный, Ю - южный, ЮЗ - юго-западный, З - западный, СЗ - северо-западный.
Видимость - горизонтальная дальность видимости в метрах или километрах. При видимости от 1 до 10 км при отсутствии осадков обычно наблюдается дымка, при ухудшении видимости до 1 км и менее - туман. В сухую погоду видимость может ухудшаться дымом, пылью или мглою.
Явления - указаны атмосферные явления, наблюдавшиеся в срок или в последний час перед сроком; фигурными скобками обозначены явления, наблюдавшиеся между сроками (за 1-3 часа до срока); квадратными скобками обозначены град или гололедные отложения с указанием их диаметра в мм.
Облачность - указаны через наклонную черту общая и нижняя облачность в баллах и высота нижней границы облаков в метрах; квадратными скобками обозначены формы облаков: Ci - перистые, Cs - перисто-слоистые, Cc - перисто-кучевые, Ac - высококучевые, As - высокослоистые, Sc - слоисто-кучевые, Ns - слоисто-дождевые, Cu - кучевые, Cb - кучево-дождевые. Подробнее классификацию облаков см. в Атласе облаков (PDF).
T - Температура воздуха - температура, измеренная на высоте 2 м над землей.
Td - Температура точки росы - температура, при понижении до которой содержащийся в воздухе водяной пар достигнет насыщения.
f - Относительная влажность воздуха - влажноcть воздуха, измеренная на высоте 2 м над землей.
Te - Эффективная температура - температура, которую ощущает одетый по сезону человек в тени. Характеристика душности погоды. При расчете учитывается влияние влажности воздуха и скорости ветра на теплоощущения человека.
Tes - Эффективная температура на солнце - температура, которую ощущает человек, с поправкой на солнечный нагрев. Характеристика знойности погоды. Зависит от высоты солнца над горизонтом, облачности и скорости ветра. Ночью, в пасмурную погоду, а также при ветре 12 м/с и более поправка равна нулю.
P - Атмосферное давление - приведенное к уровню моря атмосферное давление.
Po - Атмосферное давление - измеренное на уровне метеостанции атмосферное давление.
Tmin - Минимальная температура - минимум температуры воздуха на высоте 2 м над землей.
Tmax - Максимальная температура - максимум температуры воздуха на высоте 2 м над землей.
R - Количество осадков - Количество выпавших осадков за период времени, мм. При наведении курсора мыши на число - период времени, за который выпало указанное количество осадков.
R24 - Количество осадков - Количество выпавших осадков за 24 часа, мм.
S - Снежный покров - Высота снежного покрова, см. При наведении курсора мыши на число - состояние снежного покрова и степень покрытия местности в баллах.